Location: Sungai Liu
(2.3667°N, 113.8667°E)
Time: 13:24:15
(UTC+00:00)

Cosmos 1624 Rocket - Pass Details

Date: 20 May 2022
Orbit: 757 x 782 km, 74.0° (Epoch: 06 July)

Event Time Altitude Azimuth Distance (km) Brightness Sun altitude
Exits shadow 20:15:40 54° 351° (N) 939 4.4 -28.3°
Drops below altitude 10° 20:19:48 10° 8° (N) 2,327 6.8 -27.4°
Sets 20:22:11 0° 9° (N) 3,252 7.7 -26.8°
